STARLINK-33794, 63820

Orbit data source: Space-Track

STARLINK-33794, 63820 is a payload satellite owned by SpaceX/Seattle (US) in LEO that was launched on Sun, 04 May 2025 UTC via an FALCON 9 launch vehicle from the Air Force Eastern Test Range (AFETR). Payload-class satellites include a variety of spacecraft equipped with specific instruments for various scientific and technological missions. These include communications satellites like Starlink; space stations such as the ISS; scientific satellites like the Hubble; Earth observation satellites from companies like Planet Labs, Umbra, and HawkEye 360; GPS; miniature CubeSats for education and research; and military/defense satellites.

Loading next visibility...
Identifier
63820, 2025-092S
Orbit
LEO
Country
Flag of USUS
Related business
Manufacturer
SpaceX/Seattle
Mission
Operational Commercial Communications
Bus & Motor
STARLINK V2MO, Unknown motor
Mass
575 kg wet, ~530 kg dry
Launch date (UTC)
2025-05-04 (9 months ago)
Launch vehicle
FALCON 9
Launch site
Air Force Eastern Test Range (AFETR)
Object type
Payload
Rocket body
Debris
Shape & HBR
Box + 2 Pan, 17.7 m
Radar Cross Section
36.964 m², Large (>1 m²)

Expand to show TLE details & history
Last TLE update: 20 hours ago

TLE from 20 hours ago
0 STARLINK-33794
1 63820U 25092S   26036.26542504  .00041370  00000-0  15037-2 0  9995
2 63820  43.0031 355.8476 0000765 260.4235  99.6531 15.27596711 43655
Epoch: 2026-02-05T06:22Z
TLE epoch observation values (Epoch: 2026-02-05T06:22:12.723Z)
Latitude
0.00003°
Longitude
124.87449°
Altitude
482.863 km
Speed
7.626 km/s
True Right ascension
23h 43m 23s
True Declination
0° 00' 00"
Sunlit
Object was in daylight at epoch
Visualization orbit readout
Latitude
Unknown
Longitude
Unknown
Altitude
Unknown
Speed
Unknown
Apparent Right ascension
Unknown
Apparent Declination
Unknown
Sunlit
N/A
Visualization observer readout
Local Sidereal Time
04:21:26
Azimuth
Unknown
Elevation
Unknown
Doppler factor
Unknown
Orbital elements
Apogee altitude
485.469 km
Perigee altitude
484.419 km
Semi-major axis
6,863.081 km
Eccentricity
0.00008
Inclination
43.0031°
RAAN
355.8476°
Arg. of periapsis
260.4235°
True anomaly
99.66174°
Mean anomaly
99.6531°
Eccentric anomaly
99.65742°
Mean motion
3.81737 °/min
Orbital period
94.31 mins
BSTAR
0.0015037
Loading maneuver chart data...
Computing Atmospheric mass density...
Loading historical data...
Loading historical data...
Loading historical data...
Loading historical data...
Loading historical data...
Loading historical data...
Loading historical data...

Documentation

Showing up to 5 results
|